Home > Weather > Naples > Past weeks

Flag for USA Past Weather in Naples, Florida, USA — Yesterday and Last 2 Weeks

Now
78 °F

Thunderstorms. Scattered clouds.


Feels Like: 81 °F
Forecast: 76 / 87 °F
Wind: 7 mph from Southwest

Location: Naples Municipal

Current Time: Aug 27, 2016 at 4:55:13 PM

Latest Report: Aug 27, 2016 at 3:53 PM


Visibility: 8 mi

Pressure: 29.91 "Hg

Humidity: 100%

Dew Point: 78 °F

Location of NaplesLocation

Past Weather in Naples — Graph

°F

Naples Temperature Yesterday

Maximum temperature yesterday: 92 °F (at 1:00 PM)
Minimum temperature yesterday: 77 °F (at 6:53 PM)
Average temperature yesterday: 82 °F

High & Low Weather Summary for the Past Weeks

 TemperatureHumidityPressure
High95 °F (Aug 23, 3:53 PM)100% (Aug 12, 6:53 PM)30.15 "Hg (Aug 12, 6:53 PM)
Low74 °F (Aug 18, 5:00 PM)46% (Aug 13, 2:53 PM)29.86 "Hg (Aug 26, 4:53 PM)
Average83 °F81%30.02 "Hg
* Reported Aug 12 3:53 PM — Aug 27 3:04 PM, Naples, Weather by CustomWeather, © 2016

Note: Actual official high and low records may vary slightly from our data, if they occured in-between our weather recording intervals... More about our weather records

Advertising

Naples Weather History for the Previous 24 Hours

Scroll right to see more
 ConditionsComfort  
Time TempWeatherWind HumidityBarometerVisibility
3:04 PM
Sat, Aug 27
77 °FStrong thunderstorms. Fog.18 mph96%29.89 "Hg0 mi
1:53 PM92 °FBroken clouds.10 mph62%29.88 "Hg10 mi
12:53 PM90 °FScattered clouds.12 mph63%29.91 "Hg10 mi
11:53 AM88 °FScattered clouds.15 mph70%29.93 "Hg10 mi
10:53 AM88 °FPartly sunny.10 mph75%29.92 "Hg10 mi
9:53 AM85 °FScattered clouds.10 mph83%29.93 "Hg10 mi
8:53 AM82 °FPassing clouds.8 mph91%29.93 "Hg10 mi
7:53 AM78 °FLow clouds.7 mph96%29.92 "Hg7 mi
6:53 AM78 °FClear.5 mph96%29.90 "Hg10 mi
5:53 AM77 °FClear.5 mph100%29.89 "Hg10 mi
4:53 AM77 °FClear.5 mph100%29.89 "Hg10 mi
3:53 AM77 °FClear.6 mph96%29.88 "Hg10 mi
2:53 AM77 °FClear.6 mph96%29.88 "Hg10 mi
1:53 AM77 °FClear.7 mph96%29.91 "Hg10 mi
12:53 AM78 °FClear.6 mph96%29.94 "Hg10 mi
11:53 PM
Fri, Aug 26
78 °FClear.3 mph100%29.96 "Hg10 mi
10:53 PM78 °FLight rain. Clear.No wind100%29.97 "Hg9 mi
9:53 PM77 °FLight rain. Passing clouds.5 mph100%29.96 "Hg7 mi
9:03 PM78 °FLight rain. Passing clouds.5 mph100%29.95 "Hg7 mi
8:53 PM77 °FThunderstorms. Passing clouds.3 mph100%29.95 "Hg8 mi
7:53 PM77 °FThundershowers. Sunny.7 mph100%29.92 "Hg10 mi
6:53 PM77 °FThunderstorms. Broken clouds.8 mph94%29.93 "Hg7 mi
5:53 PM81 °FThunderstorms. Broken clouds.6 mph88%29.86 "Hg7 mi
4:53 PM89 °FThundershowers. Passing clouds.9 mph75%29.86 "Hg10 mi
Weather by CustomWeather, © 2016

See weather overviewHow to use our weather pages